星链-3860 (STARLINK-3860 )

导读

STARLINK-3860是美国SpaceX公司星链(Starlink)低轨卫星互联网星座的一员,于2022年5月6日发射。星链计划计划构建四万两千颗卫星的巨型星座,依托近地轨道部署,能为全球偏远、服务不足地区提供高速低延迟宽带互联网服务。单颗星链卫星设计寿命超5年,配备霍尔推进器用于轨道调整和规避空间碰撞,STARLINK-3860目前在轨服役,支撑全球星链网络通信覆盖。

基本信息
目录编号:
52477
目录名称:
STARLINK-3860
国际标识:
2022-049AC
轨道中心:
EARTH
卫星名称:
星链-3860
卫星全名:
星链-3860 (STARLINK-3860 )
卫星状态:
在轨 (已飞行1582 天)
发射日期:
2022-05-06 UTC
国别 :
美国 (US)
星等 :
--
轨道信息
数据来源 国际轨道数据
星历时间: 2026-09-03T22:26:02+0800
16小时前
查看轨道信息
半长轴: 6840.926km
偏心率: 0.0000913
轨道倾角: 53.161°
近地点辐角 63.032°
升交点赤经 322.367°
平近点角 297.078°
近地点: 462.164km
远地点: 463.414km
周期: 93.850分钟
每日圈数: 15.343712
详细信息
固有亮度:
5
最大亮度:
2.5
卫星平台:
Starlink v1.5
覆盖范围:
全球
运营商:
太空探索技术公司
运营商所在国:
美国
制造商(研发单位):
太空探索技术公司
制造商所在国:
美国
使用方式:
暂无
卫星简介
星链(Starlink)计划是由太空探索技术公司(SpaceX)提出的一个巨型低轨卫星互联网星座项目,计划在2019年至2024年间在太空搭建由约1.2万颗卫星组成的“星链”网络,其中1584颗将部署在地球上空550千米处的近地轨道,并从2020年开始工作。该卫星仍在工作。
2D轨道图
3D轨道图
轨道高度分析图
轨道倾角分析图
轨道综合分析图
查看轨道综合分析图
交会数据列表
事件ID 空间交会对象 最接近时刻(TCA) 交会距离 交会风险概率(CRP) 交会风险指数(CRI) 操作
CDM_260904-053005-247705-382521
2026-09-04T
05:30:46+0000
2.890 km
极远距离
1.094982E-6 低风险 0.36